Time,TemperatureF,DewpointF,PressureIn,WindDirection,WindDirectionDegrees,WindSpeedMPH,WindSpeedGustMPH,Humidity,HourlyPrecipIn,Conditions,Clouds,dailyrainin,SolarRadiationWatts/m^2,SoftwareType,DateUTC
2013-08-09 00:01:00,60.0,57.0,29.89,ESE,120,1.0,2.0,91,0.00,,,0.00,0.000000,,2013-08-09 07:01:00,
2013-08-09 00:12:00,60.0,58.0,29.89,ESE,103,1.0,3.0,92,0.00,,,0.00,0.000000,,2013-08-09 07:12:00,
2013-08-09 00:21:00,60.0,58.0,29.89,ESE,103,1.0,3.0,92,0.00,,,0.00,0.000000,,2013-08-09 07:21:00,
2013-08-09 00:33:00,60.0,58.0,29.89,ESE,104,0.0,3.0,92,0.00,,,0.00,0.000000,,2013-08-09 07:33:00,
2013-08-09 00:43:00,60.0,58.0,29.89,ESE,105,0.0,2.0,93,0.00,,,0.00,0.000000,,2013-08-09 07:43:00,
2013-08-09 00:52:00,60.0,58.0,29.89,ESE,104,1.0,3.0,93,0.00,,,0.00,0.000000,,2013-08-09 07:52:00,
2013-08-09 01:02:00,60.0,58.0,29.89,ESE,104,1.0,3.0,93,0.00,,,0.00,0.000000,,2013-08-09 08:02:00,
2013-08-09 01:11:00,60.0,58.0,29.89,ESE,104,1.0,3.0,94,0.00,,,0.00,0.000000,,2013-08-09 08:11:00,
2013-08-09 01:21:00,60.0,58.0,29.89,ESE,104,1.0,3.0,94,0.00,,,0.00,0.000000,,2013-08-09 08:21:00,
2013-08-09 01:32:00,60.0,58.0,29.89,ESE,104,1.0,5.0,94,0.00,,,0.00,0.000000,,2013-08-09 08:32:00,
2013-08-09 01:43:00,60.0,58.0,29.88,ESE,104,0.0,3.0,94,0.00,,,0.00,0.000000,,2013-08-09 08:43:00,
2013-08-09 01:53:00,60.0,58.0,29.88,ESE,104,0.0,2.0,94,0.00,,,0.00,0.000000,,2013-08-09 08:53:00,
2013-08-09 02:02:00,60.0,58.0,29.88,ESE,104,0.0,2.0,94,0.00,,,0.00,0.000000,,2013-08-09 09:02:00,
2013-08-09 02:12:00,60.0,58.0,29.88,ESE,108,2.0,5.0,94,0.00,,,0.00,0.000000,,2013-08-09 09:12:00,
2013-08-09 02:22:00,60.0,58.0,29.88,ESE,108,2.0,5.0,94,0.00,,,0.00,0.000000,,2013-08-09 09:22:00,
2013-08-09 02:32:00,60.0,58.0,29.88,ESE,106,2.0,4.0,94,0.00,,,0.00,0.000000,,2013-08-09 09:32:00,
2013-08-09 02:43:00,60.0,58.0,29.87,ENE,76,1.0,6.0,94,0.00,,,0.00,0.000000,,2013-08-09 09:43:00,
2013-08-09 02:52:00,60.0,58.0,29.87,ENE,76,1.0,6.0,94,0.00,,,0.00,0.000000,,2013-08-09 09:52:00,
2013-08-09 03:01:00,60.0,58.0,29.87,East,98,2.0,5.0,94,0.00,,,0.00,0.000000,,2013-08-09 10:01:00,
2013-08-09 03:12:00,60.0,58.0,29.87,SSE,150,2.0,5.0,94,0.00,,,0.00,0.000000,,2013-08-09 10:12:00,
2013-08-09 03:32:00,60.0,58.0,29.87,ESE,117,1.0,5.0,94,0.00,,,0.00,0.000000,,2013-08-09 10:32:00,
2013-08-09 03:43:00,60.0,58.0,29.87,SSE,165,0.0,3.0,94,0.00,,,0.00,0.000000,,2013-08-09 10:43:00,
2013-08-09 03:53:00,60.0,58.0,29.87,SSE,165,0.0,3.0,94,0.00,,,0.00,0.000000,,2013-08-09 10:53:00,
2013-08-09 04:01:00,60.0,58.0,29.87,ESE,123,0.0,4.0,94,0.00,,,0.00,0.000000,,2013-08-09 11:01:00,
2013-08-09 04:21:00,60.0,58.0,29.87,East,94,0.0,2.0,94,0.00,,,0.00,0.000000,,2013-08-09 11:21:00,
2013-08-09 04:33:00,60.0,58.0,29.87,East,94,0.0,1.0,94,0.00,,,0.00,0.000000,,2013-08-09 11:33:00,
2013-08-09 04:42:00,60.0,58.0,29.86,East,94,0.0,2.0,94,0.00,,,0.00,0.000000,,2013-08-09 11:42:00,
2013-08-09 04:53:00,60.0,58.0,29.86,East,94,0.0,2.0,94,0.00,,,0.00,0.000000,,2013-08-09 11:53:00,
2013-08-09 05:02:00,60.0,59.0,29.86,North,5,1.0,3.0,95,0.00,,,0.00,0.000000,,2013-08-09 12:02:00,
2013-08-09 05:12:00,60.0,58.0,29.86,North,5,1.0,2.0,94,0.00,,,0.00,0.000000,,2013-08-09 12:12:00,
2013-08-09 05:22:00,60.0,58.0,29.86,North,5,1.0,2.0,94,0.00,,,0.00,0.000000,,2013-08-09 12:22:00,
2013-08-09 05:32:00,60.0,58.0,29.87,NNW,348,2.0,4.0,94,0.00,,,0.00,0.000000,,2013-08-09 12:32:00,
2013-08-09 05:43:00,60.0,58.0,29.87,NNE,17,2.0,4.0,94,0.00,,,0.00,0.000000,,2013-08-09 12:43:00,
2013-08-09 06:01:00,60.0,58.0,29.87,NNE,22,3.0,6.0,94,0.00,,,0.00,0.000000,,2013-08-09 13:01:00,
2013-08-09 06:12:00,60.0,58.0,29.87,NNE,16,2.0,5.0,93,0.00,,,0.00,0.000000,,2013-08-09 13:12:00,
2013-08-09 06:32:00,60.0,58.0,29.87,North,360,1.0,6.0,93,0.00,,,0.00,0.000000,,2013-08-09 13:32:00,
2013-08-09 06:43:00,60.0,58.0,29.87,North,11,1.0,4.0,93,0.00,,,0.00,5.000000,,2013-08-09 13:43:00,
2013-08-09 06:52:00,60.0,58.0,29.87,North,11,1.0,4.0,93,0.00,,,0.00,5.000000,,2013-08-09 13:52:00,
2013-08-09 07:02:00,60.0,58.0,29.88,NNE,13,0.0,3.0,93,0.00,,,0.00,11.000000,,2013-08-09 14:02:00,
2013-08-09 07:22:00,60.0,58.0,29.88,NNE,13,0.0,2.0,92,0.00,,,0.00,19.000000,,2013-08-09 14:22:00,
2013-08-09 07:33:00,60.0,58.0,29.89,SE,134,1.0,3.0,92,0.00,,,0.00,28.000000,,2013-08-09 14:33:00,
2013-08-09 07:43:00,60.0,58.0,29.89,ESE,112,0.0,3.0,92,0.00,,,0.00,35.000000,,2013-08-09 14:43:00,
2013-08-09 07:53:00,60.0,58.0,29.89,SE,135,1.0,4.0,92,0.00,,,0.00,42.000000,,2013-08-09 14:53:00,
2013-08-09 08:01:00,60.0,58.0,29.89,SE,135,1.0,4.0,92,0.00,,,0.00,42.000000,,2013-08-09 15:01:00,
2013-08-09 08:11:00,60.0,58.0,29.90,SE,134,1.0,2.0,92,0.00,,,0.00,51.000000,,2013-08-09 15:11:00,
2013-08-09 08:22:00,60.0,58.0,29.90,SE,134,1.0,2.0,92,0.00,,,0.00,51.000000,,2013-08-09 15:22:00,
2013-08-09 08:32:00,60.0,58.0,29.90,East,94,2.0,5.0,92,0.00,,,0.00,70.000000,,2013-08-09 15:32:00,
2013-08-09 08:44:00,60.0,58.0,29.91,SE,141,0.0,2.0,92,0.00,,,0.00,100.000000,,2013-08-09 15:44:00,
2013-08-09 08:53:00,60.0,58.0,29.91,SE,141,0.0,2.0,92,0.00,,,0.00,100.000000,,2013-08-09 15:53:00,
2013-08-09 09:01:00,60.0,58.0,29.91,SE,146,1.0,3.0,92,0.00,,,0.00,107.000000,,2013-08-09 16:01:00,
2013-08-09 09:22:00,61.0,59.0,29.91,SE,128,0.0,2.0,92,0.00,,,0.00,125.000000,,2013-08-09 16:22:00,
2013-08-09 09:32:00,61.0,59.0,29.91,SE,128,0.0,2.0,92,0.00,,,0.00,130.000000,,2013-08-09 16:32:00,
2013-08-09 09:43:00,61.0,58.0,29.91,SE,127,2.0,5.0,91,0.00,,,0.00,192.000000,,2013-08-09 16:43:00,
2013-08-09 09:53:00,62.0,59.0,29.91,ESE,104,1.0,4.0,89,0.00,,,0.00,265.000000,,2013-08-09 16:53:00,
2013-08-09 10:02:00,62.0,59.0,29.91,ESE,104,1.0,4.0,89,0.00,,,0.00,265.000000,,2013-08-09 17:02:00,
2013-08-09 10:11:00,63.0,59.0,29.91,SE,135,2.0,7.0,88,0.00,,,0.00,295.000000,,2013-08-09 17:11:00,
2013-08-09 10:32:00,64.0,60.0,29.91,SSE,155,1.0,7.0,86,0.00,,,0.00,383.000000,,2013-08-09 17:32:00,
2013-08-09 10:43:00,65.0,60.0,29.91,SE,136,3.0,9.0,84,0.00,,,0.00,863.000000,,2013-08-09 17:43:00,
2013-08-09 10:52:00,65.0,60.0,29.91,SE,136,3.0,9.0,84,0.00,,,0.00,863.000000,,2013-08-09 17:52:00,
2013-08-09 11:01:00,67.0,60.0,29.91,WSW,242,0.0,8.0,79,0.00,,,0.00,819.000000,,2013-08-09 18:01:00,
2013-08-09 11:11:00,69.0,61.0,29.91,West,265,3.0,9.0,75,0.00,,,0.00,849.000000,,2013-08-09 18:11:00,
2013-08-09 11:32:00,70.0,60.0,29.92,SW,230,3.0,10.0,71,0.00,,,0.00,888.000000,,2013-08-09 18:32:00,
2013-08-09 11:43:00,71.0,60.0,29.91,West,267,5.0,9.0,69,0.00,,,0.00,884.000000,,2013-08-09 18:43:00,
2013-08-09 11:52:00,71.0,60.0,29.91,West,267,5.0,9.0,69,0.00,,,0.00,884.000000,,2013-08-09 18:52:00,
2013-08-09 12:02:00,72.0,61.0,29.91,West,259,5.0,10.0,68,0.00,,,0.00,914.000000,,2013-08-09 19:02:00,
2013-08-09 12:11:00,72.0,60.0,29.91,West,264,5.0,10.0,67,0.00,,,0.00,923.000000,,2013-08-09 19:11:00,
2013-08-09 12:32:00,72.0,61.0,29.91,SW,234,3.0,9.0,68,0.00,,,0.00,947.000000,,2013-08-09 19:32:00,
2013-08-09 12:43:00,72.0,60.0,29.91,West,277,4.0,11.0,66,0.00,,,0.00,953.000000,,2013-08-09 19:43:00,
2013-08-09 12:52:00,72.0,60.0,29.91,West,277,4.0,11.0,66,0.00,,,0.00,953.000000,,2013-08-09 19:52:00,
2013-08-09 13:02:00,73.0,61.0,29.91,NW,305,5.0,9.0,66,0.00,,,0.00,937.000000,,2013-08-09 20:02:00,
2013-08-09 13:11:00,73.0,61.0,29.91,SW,227,5.0,11.0,65,0.00,,,0.00,962.000000,,2013-08-09 20:11:00,
2013-08-09 13:32:00,73.0,60.0,29.90,WNW,298,3.0,10.0,64,0.00,,,0.00,960.000000,,2013-08-09 20:32:00,
2013-08-09 13:43:00,74.0,61.0,29.90,West,259,4.0,10.0,64,0.00,,,0.00,951.000000,,2013-08-09 20:43:00,
2013-08-09 13:52:00,74.0,61.0,29.90,West,259,4.0,10.0,64,0.00,,,0.00,951.000000,,2013-08-09 20:52:00,
2013-08-09 14:01:00,74.0,61.0,29.90,SW,219,5.0,10.0,65,0.00,,,0.00,940.000000,,2013-08-09 21:01:00,
2013-08-09 14:12:00,73.0,60.0,29.90,West,271,7.0,11.0,64,0.00,,,0.00,928.000000,,2013-08-09 21:12:00,
2013-08-09 14:32:00,73.0,60.0,29.90,West,271,4.0,12.0,64,0.00,,,0.00,912.000000,,2013-08-09 21:32:00,
2013-08-09 14:43:00,73.0,61.0,29.89,WSW,258,4.0,12.0,65,0.00,,,0.00,889.000000,,2013-08-09 21:43:00,
2013-08-09 14:52:00,73.0,61.0,29.89,WSW,258,4.0,12.0,65,0.00,,,0.00,889.000000,,2013-08-09 21:52:00,
2013-08-09 15:01:00,74.0,61.0,29.89,West,270,5.0,10.0,64,0.00,,,0.00,863.000000,,2013-08-09 22:01:00,
2013-08-09 15:11:00,74.0,61.0,29.89,WSW,256,6.0,12.0,64,0.00,,,0.00,833.000000,,2013-08-09 22:11:00,
2013-08-09 15:32:00,74.0,61.0,29.89,West,270,4.0,10.0,64,0.00,,,0.00,805.000000,,2013-08-09 22:32:00,
2013-08-09 15:42:00,73.0,60.0,29.89,SW,229,5.0,12.0,63,0.00,,,0.00,765.000000,,2013-08-09 22:42:00,
2013-08-09 15:52:00,73.0,60.0,29.89,SW,229,5.0,12.0,63,0.00,,,0.00,765.000000,,2013-08-09 22:52:00,
2013-08-09 16:01:00,73.0,61.0,29.89,WSW,256,5.0,11.0,65,0.00,,,0.00,731.000000,,2013-08-09 23:01:00,
2013-08-09 16:11:00,73.0,60.0,29.89,West,267,6.0,10.0,64,0.00,,,0.00,687.000000,,2013-08-09 23:11:00,
2013-08-09 16:21:00,73.0,60.0,29.89,West,267,6.0,10.0,64,0.00,,,0.00,687.000000,,2013-08-09 23:21:00,
2013-08-09 16:32:00,72.0,59.0,29.88,WSW,252,5.0,10.0,64,0.00,,,0.00,645.000000,,2013-08-09 23:32:00,
2013-08-09 16:43:00,71.0,59.0,29.88,West,277,5.0,11.0,67,0.00,,,0.00,603.000000,,2013-08-09 23:43:00,
2013-08-09 16:52:00,71.0,59.0,29.88,West,277,5.0,11.0,67,0.00,,,0.00,603.000000,,2013-08-09 23:52:00,
2013-08-09 17:01:00,71.0,59.0,29.88,SSW,201,5.0,9.0,66,0.00,,,0.00,554.000000,,2013-08-10 00:01:00,
2013-08-09 17:32:00,69.0,59.0,29.89,WNW,292,4.0,9.0,70,0.00,,,0.00,450.000000,,2013-08-10 00:32:00,
2013-08-09 17:43:00,69.0,59.0,29.89,WNW,292,4.0,9.0,70,0.00,,,0.00,450.000000,,2013-08-10 00:43:00,
2013-08-09 17:52:00,68.0,59.0,29.89,West,261,3.0,9.0,72,0.00,,,0.00,42.000000,,2013-08-10 00:52:00,
2013-08-09 18:01:00,68.0,59.0,29.89,West,261,3.0,9.0,72,0.00,,,0.00,42.000000,,2013-08-10 01:01:00,
2013-08-09 18:11:00,67.0,58.0,29.89,WSW,237,5.0,9.0,74,0.00,,,0.00,39.000000,,2013-08-10 01:11:00,
2013-08-09 18:21:00,67.0,58.0,29.89,WSW,237,5.0,9.0,74,0.00,,,0.00,39.000000,,2013-08-10 01:21:00,
2013-08-09 18:32:00,67.0,58.0,29.89,WSW,237,5.0,9.0,74,0.00,,,0.00,39.000000,,2013-08-10 01:32:00,
2013-08-09 18:42:00,67.0,58.0,29.89,WSW,237,5.0,9.0,74,0.00,,,0.00,39.000000,,2013-08-10 01:42:00,
2013-08-09 18:52:00,64.0,58.0,29.88,SW,220,3.0,7.0,80,0.00,,,0.00,28.000000,,2013-08-10 01:52:00,
2013-08-09 19:03:00,64.0,58.0,29.88,SW,220,3.0,7.0,80,0.00,,,0.00,28.000000,,2013-08-10 02:03:00,
2013-08-09 19:11:00,64.0,58.0,29.88,SW,220,3.0,7.0,80,0.00,,,0.00,28.000000,,2013-08-10 02:11:00,
2013-08-09 19:21:00,64.0,58.0,29.88,SW,220,3.0,7.0,80,0.00,,,0.00,28.000000,,2013-08-10 02:21:00,
2013-08-09 19:31:00,64.0,58.0,29.88,SW,220,3.0,7.0,80,0.00,,,0.00,28.000000,,2013-08-10 02:31:00,
2013-08-09 19:52:00,64.0,58.0,29.88,SW,219,3.0,5.0,80,0.00,,,0.00,26.000000,,2013-08-10 02:52:00,
2013-08-09 20:01:00,62.0,57.0,29.89,SSW,198,2.0,6.0,84,0.00,,,0.00,5.000000,,2013-08-10 03:01:00,
2013-08-09 20:11:00,62.0,57.0,29.89,SSW,198,2.0,6.0,84,0.00,,,0.00,5.000000,,2013-08-10 03:11:00,
2013-08-09 20:21:00,62.0,57.0,29.89,SSW,198,2.0,6.0,84,0.00,,,0.00,5.000000,,2013-08-10 03:21:00,
2013-08-09 20:32:00,62.0,57.0,29.89,SSW,198,1.0,4.0,84,0.00,,,0.00,0.000000,,2013-08-10 03:32:00,
2013-08-09 20:42:00,62.0,57.0,29.89,SSW,198,1.0,4.0,84,0.00,,,0.00,0.000000,,2013-08-10 03:42:00,
2013-08-09 20:52:00,62.0,57.0,29.89,SSW,198,1.0,4.0,84,0.00,,,0.00,0.000000,,2013-08-10 03:52:00,
2013-08-09 21:01:00,61.0,57.0,29.91,SSW,198,0.0,2.0,86,0.00,,,0.00,0.000000,,2013-08-10 04:01:00,
2013-08-09 21:11:00,61.0,57.0,29.91,SSW,198,0.0,2.0,86,0.00,,,0.00,0.000000,,2013-08-10 04:11:00,
2013-08-09 21:22:00,61.0,57.0,29.91,SSW,198,0.0,1.0,87,0.00,,,0.00,0.000000,,2013-08-10 04:22:00,
2013-08-09 21:32:00,61.0,57.0,29.91,SSW,198,0.0,1.0,87,0.00,,,0.00,0.000000,,2013-08-10 04:32:00,
2013-08-09 21:42:00,61.0,57.0,29.92,SSW,198,0.0,1.0,87,0.00,,,0.00,0.000000,,2013-08-10 04:42:00,
2013-08-09 21:53:00,60.0,56.0,29.92,SSW,198,0.0,1.0,87,0.00,,,0.00,0.000000,,2013-08-10 04:53:00,
2013-08-09 22:02:00,60.0,56.0,29.92,SSW,198,0.0,1.0,87,0.00,,,0.00,0.000000,,2013-08-10 05:02:00,
2013-08-09 22:11:00,60.0,56.0,29.92,SSW,198,0.0,1.0,87,0.00,,,0.00,0.000000,,2013-08-10 05:11:00,
2013-08-09 22:21:00,60.0,56.0,29.92,SSW,198,0.0,1.0,87,0.00,,,0.00,0.000000,,2013-08-10 05:21:00,
2013-08-09 22:32:00,60.0,56.0,29.92,SSW,198,0.0,1.0,88,0.00,,,0.00,0.000000,,2013-08-10 05:32:00,
2013-08-09 22:42:00,60.0,56.0,29.92,SSW,198,0.0,1.0,88,0.00,,,0.00,0.000000,,2013-08-10 05:42:00,
2013-08-09 23:02:00,60.0,56.0,29.92,SSW,198,0.0,2.0,88,0.00,,,0.00,0.000000,,2013-08-10 06:02:00,
2013-08-09 23:22:00,60.0,56.0,29.92,SSW,198,0.0,0.0,88,0.00,,,0.00,0.000000,,2013-08-10 06:22:00,
2013-08-09 23:32:00,59.0,55.0,29.92,SSW,198,0.0,1.0,88,0.00,,,0.00,0.000000,,2013-08-10 06:32:00,
2013-08-09 23:44:00,59.0,55.0,29.92,SSW,198,0.0,1.0,88,0.00,,,0.00,0.000000,,2013-08-10 06:44:00,